Regional Weather Roundup
Issued by NWS

Home | Current Version | Previous Version | Graphics & Text | Print | Product List | Glossary On
Versions: 1 2 3 4 5 6 7 8 9 10 11 12 13 14 15 16 17 18 19 20 21 22 23 24 25 26 27 28 29 30 31 32 33 34 35 36 37 38 39 40 41 42 43 44 45 46 47 48 49 50
411
ASUS43 KMKX 290411
RWRWI

WISCONSIN REGIONAL WEATHER ROUNDUP
NATIONAL WEATHER SERVICE MILWAUKEE/SULLIVAN WI
1100 PM CDT SUN MAY 28 2017

NOTE: "FAIR" INDICATES FEW OR NO CLOUDS BELOW 12,000 FEET WITH NO
SIGNIFICANT WEATHER AND/OR OBSTRUCTIONS TO VISIBILITY.

WIZ001-002-006>008-014>016-023>028-290500-
NORTHWEST WISCONSIN

CITY           SKY/WX    TMP DP  RH WIND       PRES   REMARKS
SUPERIOR ARPT  NOT AVBL
ASHLAND        CLOUDY    52  49  89 SW7       29.63F
HAYWARD        CLEAR     53  45  74 VRB3      29.67S
SIREN          MOCLDY    51  49  91 CALM      29.69F
CUMBERLAND     PTCLDY    54  46  76 W9        29.69F
RICE LAKE      PTCLDY    55  50  81 SW8       29.71S
CHETEK         MOCLDY    55  50  83 SW7       29.70S
LADYSMITH      CLEAR     52  50  93 W5        29.70S
EAU CLAIRE     LGT RAIN  53  50  89 W14G21    29.71R
MENOMONIE      CLOUDY    56  51  83 W5        29.72R
NEW RICHMOND   CLOUDY    51  49  94 SW6       29.72S
OSCEOLA        MOCLDY    52  52 100 W7        29.75R
$$

WIZ003>005-009-010-017-018-290500-
NORTH CENTRAL WISCONSIN

CITY           SKY/WX    TMP DP  RH WIND       PRES   REMARKS
MANITOWISH WTR CLOUDY    51  51 100 S3        29.64F
ARBOR VITAE    PTCLDY    52  51  95 SW6       29.65F
WOODRUFF       PTCLDY    52  51  95 SW6       29.65F
RHINELANDER    MOCLDY    51  48  89 W3        29.68R FOG
EAGLE RIVER    MOCLDY    49  48  99 CALM      29.65S
LAND O LAKES   PTCLDY    50  50 100 CALM      29.66F
PHILLIPS       CLOUDY    52  49  91 SW5       29.66F
TOMAHAWK       PTCLDY    51  46  86 SW3       29.69R
MEDFORD        CLEAR     51  47  88 SW6       29.69S
MERRILL        CLEAR     52  48  86 W5        29.69R
$$

WIZ029-030-035-036-043>047-290500-
CENTRAL WISCONSIN

CITY           SKY/WX    TMP DP  RH WIND       PRES   REMARKS
WAUSAU         CLEAR     55  47  74 W8        29.68S
MOSINEE        CLEAR     50  46  87 SW6       29.71S
MARSHFIELD     CLEAR     51  48  89 W6        29.70S
STEVENS POINT  CLEAR     55  47  76 W5        29.71S
WAUPACA        CLOUDY    62  48  61 SW3       29.71S
WAUTOMA        CLEAR     57  49  74 W3        29.73R
WISC RAPIDS    CLEAR     55  48  77 W5        29.72F
CAMP DOUGLAS   PTCLDY    51  46  80 CALM      29.73S
$$

WIZ011>013-019>022-031-037>040-048>050-290500-
NORTHEAST WISCONSIN

CITY           SKY/WX    TMP DP  RH WIND       PRES   REMARKS
ANTIGO         CLOUDY    51  48  89 W5        29.69S
SHAWANO        CLOUDY    62  48  60 SW3       29.68F
OCONTO         CLEAR     54  51  91 CALM      29.66F
STURGEON BAY   PTCLDY    54  53  97 S5        29.68S
GREEN BAY      CLEAR     60  49  66 W9        29.69S
MANITOWOC      PTCLDY    57  49  74 SW5       29.70S
APPLETON       PTCLDY    61  43  51 NW8       29.70R
CLINTONVILLE   CLOUDY    61  45  55 SW3       29.69S
OSHKOSH        MOCLDY    62  47  57 SW3       29.70S
$$

WIZ032>034-041-042-053>061-290500-
SOUTHWEST WISCONSIN

CITY           SKY/WX    TMP DP  RH WIND       PRES   REMARKS
LA CROSSE      CLOUDY    60  49  66 CALM      29.72S
SPARTA         CLEAR     52  48  86 CALM      29.74S
VIROQUA        CLOUDY    60  42  52 CALM      29.75S
BOSCOBEL       CLEAR     55  49  80 W3        29.75S
PRAIRIE DU CHI CLEAR     56  48  74 NE3       29.75S
PLATTEVILLE    CLEAR     62  47  58 SW5       29.77S
$$

WIZ056-057-062-063-064-067-068-290500-
SOUTH CENTRAL WISCONSIN

CITY           SKY/WX    TMP DP  RH WIND       PRES   REMARKS
REEDSBURG      CLEAR     57  48  72 CALM      29.73S
BARABOO/DELLS  CLEAR     56  44  64 SW3       29.73F
LONE ROCK      CLEAR     56  48  74 E3        29.74S
MINERAL POINT  CLEAR     63  43  48 SW6       29.76F
MADISON        PTCLDY    60  48  64 CALM      29.73F
MIDDLETON      CLEAR     57  49  73 CALM      29.75S
WATERTOWN      CLEAR     54  50  86 CALM      29.73F
MONROE         PTCLDY    61  46  59 SW6       29.76S
JANESVILLE     PTCLDY    61  50  67 CALM      29.75F
$$

WIZ051-052-058>065-066-070>072-290500-
SOUTHEAST WISCONSIN

CITY           SKY/WX    TMP DP  RH WIND       PRES   REMARKS
MILWAUKEE      CLEAR     66  48  52 SW8       29.73S
WAUKESHA       CLEAR     59  45  58 SW5       29.75S
MILWAUKEE/TIMM   N/A     57  45  62 SW3       29.74S
RACINE         CLEAR     61  47  59 W5        29.75F
KENOSHA        CLEAR     56  48  74 SW7       29.74F
FOND DU LAC    CLEAR     60  46  59 SW6       29.71S
SHEBOYGAN      MOCLDY    59  52  77 SW6       29.70F
WEST BEND      CLEAR     57  48  72 SW5       29.73S
JUNEAU         CLEAR     57  49  75 SW3       29.74S
$$

LSZ147-162-290500-
LAKE SUPERIOR

STATION/POSITION TIME  TEMP    WIND        PRES    WAVE
                       AIR SEA DIR/SP/G            HT/PER
                 (UTC) (F)     (DEG/KT/KT) (MB)    (FT/S)
W MID LAKE BUOY  0250   42 37  220/ 10/ 12 1003.0F   0
DEVILS ISLAND    0400   49     230/ 11/ 11 1002.9F
PORT WING        0330   56     230/  7/ 12 1003.7S
SAXON HARBOR     0340   53     210/  3/  4 1003.0F
$$

LMZ867-665-643>646-290500-
LAKE MICHIGAN

STATION/POSITION TIME  TEMP    WIND        PRES    WAVE
                       AIR SEA DIR/SP/G            HT/PER
                 (UTC) (F)     (DEG/KT/KT) (MB)    (FT/S)
CHAMBERS ISLAND  0340   51      CALM  /  4 1004.1F
N MID LAKE BUOY  0350   47 42  190/  6/  8 1005.2F   1
NORTHPORT PIER   0340   50     170/  6/  9 1004.4S
SISTER BAY       0336   50     150/  5/  7   N/A
ALGOMA LAKESHORE 0346             CALM       N/A
KEWAUNEE LAKESHO 0348   60     290/  3/  4 1004.8R
SHEBOYGAN LAKESH 0400   64     240/  7/  8 1005.4F
PORT WASHINGTON  0330   60     260/  4/  4 1007.1F
ATWATER BUOY     0309   62     240/  6/  6 1007.0R
MILWAUKEE LAKESH 0350   67     230/  6/  7   N/A
S MID LAKE BUOY  0250   51 49  230/ 10/ 12 1007.2R   0
KENOSHA   LAKESH 0400   66     260/  5/  8 1007.1
$$

TC  - TEMPERATURE IN CELSIUS
VSB - VISIBILITY IN STATUTE MILES
WCI - WIND CHILL INDEX
HX  - HEAT INDEX





USA.gov is the U.S. government's official web portal to all federal, state and local government web resources and services.